NT2C Weather Reports


Display with metric or nautical units.
time (UTC)temp
F
wind
direction
speed
MPH
gust
MPH
rain 1hr
in
rain 24hr
in
rain mn
in
humidity
%
barometer
mb
20260506153049 61 245 4.0 13.0 0.02 0.09 0.09 89 1002.8
20260506152548 61 197 6.0 13.0 0.04 0.09 0.09 89 1002.6
20260506152048 61 214 6.0 10.0 0.06 0.09 0.09 89 1002.6
20260506151548 61 205 4.0 11.0 0.06 0.09 0.09 89 1002.5
20260506151046 61 195 6.0 11.0 0.06 0.09 0.09 89 1002.5
20260506150548 61 102 5.0 14.0 0.05 0.08 0.08 88 1002.8
20260506150045 61 228 4.0 14.0 0.05 0.08 0.08 88 1003.0
20260506145544 61 217 4.0 12.0 0.06 0.08 0.08 88 1003.1
20260506145043 61 213 6.0 12.0 0.05 0.07 0.07 88 1003.2
20260506144559 61 207 5.0 10.0 0.05 0.07 0.07 88 1003.5
20260506144043 61 214 4.0 10.0 0.05 0.07 0.07 87 1003.4
20260506143541 61 212 4.0 10.0 0.05 0.07 0.07 86 1003.5
20260506143041 62 214 5.0 10.0 0.04 0.06 0.06 86 1003.5
20260506142541 62 218 3.0 9.0 0.03 0.05 0.05 86 1003.5
20260506142040 62 225 4.0 9.0 0.02 0.03 0.03 86 1003.4
20260506141540 62 221 2.0 9.0 0.02 0.03 0.03 86 1003.4
20260506141040 62 231 2.0 9.0 0.03 0.03 0.03 86 1003.3
20260506140539 61 211 3.0 9.0 0.03 0.03 0.03 86 1003.2
20260506140039 61 226 3.0 7.0 0.03 0.03 0.03 85 1003.0
20260506135538 62 227 2.0 10.0 0.02 0.02 0.02 85 1003.0
20260506135037 62 178 3.0 8.0 0.02 0.02 0.02 84 1002.9
20260506134538 62 213 1.0 7.0 0.02 0.02 0.02 84 1003.0
20260506134037 62 179 3.0 7.0 0.02 0.02 0.02 84 1003.0
20260506133538 62 150 2.0 10.0 0.02 0.02 0.02 83 1003.0
20260506133041 62 228 3.0 10.0 0.02 0.02 0.02 83 1003.0
20260506132535 62 231 2.0 11.0 0.02 0.02 0.02 82 1003.2
20260506132034 63 231 5.0 11.0 0.01 0.01 0.01 81 1003.2
20260506131533 63 162 4.0 10.0 0.01 0.01 0.01 80 1003.2
20260506131033 63 229 4.0 10.0 0.00 0.00 0.00 80 1003.3
20260506130533 63 229 3.0 8.0 0.00 0.00 0.00 80 1003.3
20260506130036 63 252 3.0 8.0 0.00 0.00 0.00 80 1003.2
20260506125531 63 212 3.0 11.0 0.00 0.00 0.00 79 1003.1
20260506125029 63 226 4.0 11.0 0.00 0.00 0.00 78 1003.1
20260506124529 63 252 3.0 8.0 0.00 0.00 0.00 78 1003.1
20260506124028 64 210 4.0 11.0 0.00 0.00 0.00 76 1003.0
20260506123527 64 213 4.0 11.0 0.00 0.00 0.00 75 1002.9
20260506123027 64 203 3.0 10.0 0.00 0.00 0.00 75 1002.9
20260506122526 64 179 4.0 12.0 0.00 0.00 0.00 74 1002.9
20260506122025 64 191 6.0 11.0 0.00 0.00 0.00 74 1003.0
20260506121527 64 226 5.0 11.0 0.00 0.00 0.00 74 1002.9
20260506121025 65 224 5.0 9.0 0.00 0.00 0.00 74 1003.0
20260506120523 65 234 4.0 10.0 0.00 0.00 0.00 74 1003.0
20260506120028 65 190 4.0 10.0 0.00 0.00 0.00 74 1003.1
20260506115523 65 168 5.0 10.0 0.00 0.00 0.00 74 1003.2
20260506115020 65 223 3.0 8.0 0.00 0.00 0.00 74 1003.1
20260506114520 65 191 4.0 12.0 0.00 0.00 0.00 73 1003.3
20260506114021 65 214 6.0 14.0 0.00 0.00 0.00 73 1003.3
20260506113520 65 179 5.0 14.0 0.00 0.00 0.00 74 1003.1
20260506113021 65 175 4.0 13.0 0.00 0.00 0.00 74 1003.2
20260506112517 65 143 6.0 14.0 0.00 0.00 0.00 74 1003.2
20260506112017 65 226 4.0 10.0 0.00 0.00 0.00 74 1003.1
20260506111517 65 217 5.0 10.0 0.00 0.00 0.00 74 1003.1
20260506111016 65 228 4.0 10.0 0.00 0.00 0.00 74 1003.0
20260506110515 65 225 5.0 15.0 0.00 0.00 0.00 74 1002.9
20260506110019 65 154 4.0 15.0 0.00 0.00 0.00 74 1002.9
20260506105513 65 205 5.0 15.0 0.00 0.00 0.00 74 1002.8
20260506105017 65 207 4.0 15.0 0.00 0.00 0.00 74 1002.8
20260506104512 65 179 4.0 12.0 0.00 0.00 0.00 75 1002.9
20260506104016 64 203 4.0 12.0 0.00 0.00 0.00 75 1002.9
20260506103511 65 243 5.0 10.0 0.00 0.00 0.00 74 1002.8
20260506103011 65 172 4.0 10.0 0.00 0.00 0.00 74 1002.9
20260506102510 65 176 6.0 11.0 0.00 0.00 0.00 74 1002.9
20260506102010 65 210 5.0 11.0 0.00 0.00 0.00 74 1002.8
20260506101510 65 213 5.0 10.0 0.00 0.00 0.00 74 1002.9
20260506101008 65 226 3.0 11.0 0.00 0.00 0.00 74 1002.8
20260506100511 65 207 6.0 11.0 0.00 0.00 0.00 74 1002.9
20260506100006 65 188 5.0 11.0 0.00 0.00 0.00 74 1003.0
20260506095505 65 186 3.0 11.0 0.00 0.00 0.00 74 1002.9
20260506095005 65 216 4.0 13.0 0.00 0.00 0.00 74 1002.9
20260506094503 65 155 6.0 13.0 0.00 0.00 0.00 74 1002.7
20260506094005 65 229 6.0 12.0 0.00 0.00 0.00 73 1002.7
20260506093503 65 163 4.0 10.0 0.00 0.00 0.00 73 1002.7
20260506093003 65 197 4.0 11.0 0.00 0.00 0.00 73 1002.7
20260506092503 65 189 5.0 13.0 0.00 0.00 0.00 73 1002.7
20260506092002 65 219 4.0 11.0 0.00 0.00 0.00 73 1002.9
20260506091504 65 206 4.0 11.0 0.00 0.00 0.00 73 1002.9
20260506091001 65 233 5.0 11.0 0.00 0.00 0.00 73 1002.9
20260506090600 65 231 4.0 11.0 0.00 0.00 0.00 73 1003.0
20260506085558 65 210 5.0 13.0 0.00 0.00 0.00 72 1003.0
20260506085059 65 229 6.0 13.0 0.00 0.00 0.00 72 1003.2
20260506084559 65 182 6.0 12.0 0.00 0.00 0.00 72 1003.1
20260506084057 65 179 4.0 12.0 0.00 0.00 0.00 72 1003.1
20260506083556 65 228 6.0 12.0 0.00 0.00 0.00 72 1003.2
20260506083100 65 217 4.0 15.0 0.00 0.00 0.00 72 1003.2
20260506082554 65 211 5.0 15.0 0.00 0.00 0.00 71 1003.2
20260506082054 66 189 5.0 15.0 0.00 0.00 0.00 71 1003.3
20260506081553 66 237 6.0 15.0 0.00 0.00 0.00 71 1003.3
20260506081052 66 189 5.0 13.0 0.00 0.00 0.00 71 1003.3
20260506080552 66 203 4.0 13.0 0.00 0.00 0.00 71 1003.4
20260506080105 66 213 4.0 10.0 0.00 0.00 0.00 71 1003.2
20260506073057 67 226 5.0 14.0 0.00 0.00 0.00 70 1003.1
20260506072546 67 219 5.0 14.0 0.00 0.00 0.00 69 1003.1
20260506072045 67 197 6.0 14.0 0.00 0.00 0.00 69 1003.2
20260506071543 67 186 5.0 12.0 0.00 0.00 0.00 69 1003.2
20260506071047 67 202 3.0 12.0 0.00 0.00 0.00 69 1003.4
20260506070541 67 217 4.0 12.0 0.00 0.00 0.00 69 1003.4
20260506062035 68 167 6.0 16.0 0.00 0.00 0.00 67 1003.5
20260506061534 68 212 6.0 16.0 0.00 0.00 0.00 67 1003.5
20260506061033 68 223 8.0 16.0 0.00 0.00 0.00 66 1003.5
20260506060531 68 223 6.0 15.0 0.00 0.00 0.00 66 1003.4
20260506051021 71 225 8.0 14.0 0.00 0.00 0.00 62 1003.7
20260506045036 71 226 6.0 15.0 0.00 0.00 0.00 61 1003.7
20260506044524 71 228 7.0 15.0 0.00 0.00 0.00 61 1003.7
20260506044014 71 247 6.0 13.0 0.00 0.00 0.00 61 1003.7
20260506043515 71 150 7.0 14.0 0.00 0.00 0.00 60 1003.7
20260506043019 71 225 9.0 14.0 0.00 0.00 0.00 60 1003.7
20260506042512 71 189 5.0 15.0 0.00 0.00 0.00 60 1003.7
20260506042011 72 163 7.0 15.0 0.00 0.00 0.00 59 1003.8
20260506041510 72 192 7.0 14.0 0.00 0.00 0.00 59 1003.9
20260506041009 72 169 6.0 13.0 0.00 0.00 0.00 59 1003.7
20260506040508 72 239 6.0 13.0 0.00 0.00 0.00 59 1003.8
20260506040008 72 213 6.0 12.0 0.00 0.00 0.00 58 1003.8
20260506035507 72 203 6.0 15.0 0.00 0.00 0.00 58 1003.9
20260506035009 72 220 6.0 15.0 0.00 0.00 0.00 58 1003.7
20260506034506 72 194 5.0 12.0 0.00 0.00 0.00 58 1003.7
20260506034007 72 244 5.0 15.0 0.00 0.00 0.00 58 1003.7
20260506033506 72 229 4.0 15.0 0.00 0.00 0.00 57 1003.6
20260506033006 72 223 6.0 13.0 0.00 0.00 0.00 57 1003.6
20260506032506 72 198 5.0 12.0 0.00 0.00 0.00 57 1003.7
20260506032006 72 215 5.0 13.0 0.00 0.00 0.00 57 1003.8
20260506031507 72 239 7.0 13.0 0.00 0.00 0.00 57 1003.7
20260506031006 72 189 6.0 11.0 0.00 0.00 0.00 57 1003.8
20260506030506 72 213 5.0 14.0 0.00 0.00 0.00 57 1003.8
20260506030006 72 155 5.0 14.0 0.00 0.00 0.00 57 1003.7
20260506025505 72 237 6.0 13.0 0.00 0.00 0.00 56 1003.8
20260506025005 72 176 6.0 13.0 0.00 0.00 0.00 56 1003.8
20260506024505 72 221 5.0 12.0 0.00 0.00 0.00 56 1003.7
20260506024005 72 210 6.0 11.0 0.00 0.00 0.00 56 1003.9
20260506023504 72 227 4.0 9.0 0.00 0.00 0.00 56 1004.0
20260506023005 72 192 5.0 12.0 0.00 0.00 0.00 55 1004.1
20260506022503 73 229 4.0 12.0 0.00 0.00 0.00 55 1004.1
20260506022003 73 207 4.0 12.0 0.00 0.00 0.00 54 1004.1
20260506021503 73 184 4.0 11.0 0.00 0.00 0.00 54 1004.1
20260506021006 73 206 6.0 11.0 0.00 0.00 0.00 54 1004.1
20260506020505 73 182 4.0 11.0 0.00 0.00 0.00 53 1004.1
20260506020002 73 155 5.0 11.0 0.00 0.00 0.00 53 1004.1
20260506015503 73 229 4.0 9.0 0.00 0.00 0.00 52 1004.0
20260506015003 73 171 3.0 11.0 0.00 0.00 0.00 52 1004.0
20260506014502 74 210 5.0 11.0 0.00 0.00 0.00 51 1003.8
20260506014002 74 234 3.0 11.0 0.00 0.00 0.00 51 1003.8
20260506013502 74 227 4.0 9.0 0.00 0.00 0.00 50 1003.8
20260506013002 74 170 3.0 9.0 0.00 0.00 0.00 50 1003.8
20260506012502 74 217 3.0 9.0 0.00 0.00 0.00 49 1003.8
20260506012001 74 176 4.0 9.0 0.00 0.00 0.00 49 1003.6
20260506011505 75 177 4.0 9.0 0.00 0.00 0.00 48 1003.6
20260506011003 75 200 4.0 9.0 0.00 0.00 0.00 48 1003.5
20260506010502 75 150 2.0 8.0 0.00 0.00 0.00 47 1003.5
20260506010120 75 217 3.0 11.0 0.00 0.00 0.00 47 1003.5
20260506005600 75 205 4.0 12.0 0.00 0.00 0.00 47 1003.4
20260506005103 75 229 6.0 12.0 0.00 0.00 0.00 46 1003.3
20260506004600 76 203 5.0 12.0 0.00 0.00 0.00 46 1003.2
20260506004059 76 235 4.0 12.0 0.00 0.00 0.00 45 1003.0
20260506003559 76 212 5.0 15.0 0.00 0.00 0.00 45 1003.1
20260506003100 76 189 6.0 15.0 0.00 0.00 0.00 45 1003.1
20260506002559 76 174 5.0 9.0 0.00 0.00 0.00 44 1003.1
20260506002059 76 219 3.0 7.0 0.00 0.00 0.00 44 1003.1
20260506001601 76 166 3.0 8.0 0.00 0.00 0.00 44 1002.9
20260506001059 77 233 3.0 10.0 0.00 0.00 0.00 43 1002.9
20260506000603 77 188 5.0 12.0 0.00 0.00 0.00 43 1002.8
20260505235601 77 252 5.0 9.0 0.00 0.00 0.00 42 1002.8
20260505235058 77 205 5.0 10.0 0.00 0.00 0.00 42 1002.9
20260505234557 78 128 4.0 11.0 0.00 0.00 0.00 41 1002.8
20260505234057 78 198 6.0 11.0 0.00 0.00 0.00 41 1002.8
20260505233559 78 221 6.0 9.0 0.00 0.00 0.00 40 1002.7
20260505233058 79 172 3.0 8.0 0.00 0.00 0.00 39 1002.7
20260505232557 79 236 3.0 11.0 0.00 0.00 0.00 39 1002.7
20260505232057 79 225 6.0 17.0 0.00 0.00 0.00 38 1002.7
20260505231557 80 145 8.0 17.0 0.00 0.00 0.00 37 1002.7
20260505231057 80 203 8.0 23.0 0.00 0.00 0.00 36 1002.7
20260505230555 80 214 10.0 23.0 0.00 0.00 0.00 36 1002.8
20260505230059 80 206 7.0 14.0 0.00 0.00 0.00 35 1002.7
20260505225555 80 243 5.0 22.0 0.00 0.00 0.00 35 1002.8
20260505225055 80 281 7.0 22.0 0.00 0.00 0.00 34 1002.8
20260505224555 81 219 11.0 22.0 0.00 0.00 0.00 33 1002.8
20260505224054 81 217 12.0 22.0 0.00 0.00 0.00 33 1002.8
20260505223555 82 240 10.0 19.0 0.00 0.00 0.00 34 1002.7
20260505223055 82 216 6.0 21.0 0.00 0.00 0.00 33 1002.7
20260505222553 82 234 7.0 18.0 0.00 0.00 0.00 33 1002.6
20260505222056 82 231 9.0 18.0 0.00 0.00 0.00 33 1002.4
20260505221603 82 249 5.0 15.0 0.00 0.00 0.00 34 1002.6
20260505221052 82 237 9.0 15.0 0.00 0.00 0.00 34 1002.5
20260505220553 82 227 6.0 14.0 0.00 0.00 0.00 34 1002.6
20260505220103 81 136 7.0 14.0 0.00 0.00 0.00 34 1002.5
20260505215551 81 205 7.0 14.0 0.00 0.00 0.00 34 1002.5
20260505215052 81 234 7.0 20.0 0.00 0.00 0.00 33 1002.6
20260505214553 82 223 9.0 20.0 0.00 0.00 0.00 33 1002.6
20260505214052 82 238 9.0 17.0 0.00 0.00 0.00 33 1002.5
20260505213550 82 230 7.0 20.0 0.00 0.00 0.00 33 1002.4
20260505213051 82 220 10.0 21.0 0.00 0.00 0.00 32 1002.4
20260505212551 83 222 12.0 26.0 0.00 0.00 0.00 30 1002.3
20260505212051 83 252 12.0 24.0 0.00 0.00 0.00 30 1002.3
20260505211550 84 251 10.0 26.0 0.00 0.00 0.00 30 1002.2
20260505211050 83 283 10.0 23.0 0.00 0.00 0.00 32 1002.2
20260505210550 83 237 11.0 23.0 0.00 0.00 0.00 31 1002.3
20260505210052 83 239 9.0 24.0 0.00 0.00 0.00 31 1002.4
20260505205549 83 230 10.0 18.0 0.00 0.00 0.00 31 1002.4
20260505205049 83 257 10.0 21.0 0.00 0.00 0.00 31 1002.3
20260505204557 83 263 10.0 21.0 0.00 0.00 0.00 30 1002.3
20260505204049 83 205 12.0 27.0 0.00 0.00 0.00 31 1002.3
20260505203552 83 233 14.0 27.0 0.00 0.00 0.00 30 1002.3
20260505203049 84 218 6.0 17.0 0.00 0.00 0.00 30 1002.3
20260505202548 83 239 9.0 22.0 0.00 0.00 0.00 31 1002.3
20260505202048 83 234 12.0 23.0 0.00 0.00 0.00 31 1002.4
20260505201550 83 236 15.0 24.0 0.00 0.00 0.00 30 1002.4
20260505201048 84 255 10.0 24.0 0.00 0.00 0.00 30 1002.5
20260505200546 83 246 7.0 24.0 0.00 0.00 0.00 33 1002.4
20260505200045 83 194 9.0 20.0 0.00 0.00 0.00 33 1002.7
20260505195545 83 202 10.0 22.0 0.00 0.00 0.00 33 1002.7
20260505195044 83 239 11.0 22.0 0.00 0.00 0.00 32 1002.7
20260505194555 83 225 12.0 22.0 0.00 0.00 0.00 32 1002.8
20260505194043 84 252 8.0 16.0 0.00 0.00 0.00 33 1002.8
20260505193543 84 190 8.0 19.0 0.00 0.00 0.00 34 1002.8
20260505193043 83 132 10.0 26.0 0.00 0.00 0.00 33 1002.9
20260505192539 83 262 8.0 21.0 0.00 0.00 0.00 33 1003.0
20260505192039 83 151 10.0 20.0 0.00 0.00 0.00 33 1003.1
20260505191538 83 249 9.0 21.0 0.00 0.00 0.00 34 1003.2
20260505191037 83 156 10.0 21.0 0.00 0.00 0.00 33 1003.4
20260505190538 83 243 8.0 22.0 0.00 0.00 0.00 32 1003.4
20260505190034 83 229 13.0 22.0 0.00 0.00 0.00 33 1003.5
20260505185534 83 215 11.0 20.0 0.00 0.00 0.00 34 1003.5
20260505185036 83 203 10.0 20.0 0.00 0.00 0.00 35 1003.7
20260505184533 83 216 9.0 18.0 0.00 0.00 0.00 35 1003.7
20260505184032 83 232 7.0 22.0 0.00 0.00 0.00 36 1003.7
20260505183531 83 270 9.0 22.0 0.00 0.00 0.00 36 1003.8
20260505183043 82 236 7.0 23.0 0.00 0.00 0.00 37 1003.8
20260505182531 82 246 13.0 24.0 0.00 0.00 0.00 36 1003.9
20260505182031 82 191 10.0 22.0 0.00 0.00 0.00 35 1003.9
20260505181531 82 212 8.0 18.0 0.00 0.00 0.00 37 1003.9
20260505181029 82 237 4.0 17.0 0.00 0.00 0.00 39 1004.1
20260505180529 82 238 8.0 17.0 0.00 0.00 0.00 39 1004.3
20260505180029 82 238 8.0 18.0 0.00 0.00 0.00 37 1004.3
20260505175528 82 158 6.0 18.0 0.00 0.00 0.00 39 1004.3
20260505175027 82 221 6.0 16.0 0.00 0.00 0.00 38 1004.3
20260505174526 81 221 5.0 17.0 0.00 0.00 0.00 39 1004.3
20260505174026 81 218 9.0 21.0 0.00 0.00 0.00 40 1004.3
20260505173524 80 215 9.0 21.0 0.00 0.00 0.00 39 1004.3
20260505173023 81 214 8.0 19.0 0.00 0.00 0.00 38 1004.3
20260505172523 81 226 8.0 20.0 0.00 0.00 0.00 38 1004.3
20260505172022 80 248 12.0 18.0 0.00 0.00 0.00 38 1004.3
20260505171522 80 236 6.0 23.0 0.00 0.00 0.00 38 1004.4
20260505171021 80 212 10.0 23.0 0.00 0.00 0.00 37 1004.4
20260505170520 80 268 9.0 20.0 0.00 0.00 0.00 39 1004.5
20260505170018 80 228 9.0 19.0 0.00 0.00 0.00 39 1004.6
20260505165517 80 235 10.0 17.0 0.00 0.00 0.00 40 1004.6
20260505165017 80 244 6.0 14.0 0.00 0.00 0.00 44 1004.7
20260505164516 80 223 5.0 18.0 0.00 0.00 0.00 43 1004.8
20260505164015 79 233 8.0 17.0 0.00 0.00 0.00 41 1004.8
20260505163515 80 240 7.0 14.0 0.00 0.00 0.00 42 1004.9
20260505163013 79 214 7.0 15.0 0.00 0.00 0.00 43 1005.2
20260505162514 79 193 7.0 14.0 0.00 0.00 0.00 46 1005.2
20260505162012 79 232 5.0 12.0 0.00 0.00 0.00 46 1005.2
20260505161512 78 191 4.0 15.0 0.00 0.00 0.00 46 1005.3
20260505161012 78 231 7.0 15.0 0.00 0.00 0.00 46 1005.4
20260505160511 78 206 6.0 14.0 0.00 0.00 0.00 46 1005.6